Lexington Weather

Lexington, Massachusetts, USA

34°F
4/16/2021 11:18am 
  • Lexington Conditions: Light snow, Mist, Overcast
  • Temperature: 34.0°F / 1.1°C 
  • Dew Point: 32.7°F 
  • Relative Humidity: 95
  • Wind: Wind from N N Calm, 10-min avg: 1 mph, gust: 4 mph
  • Barometer: 29.46 inFalling 0.03  inHg/hr Falling Slowly
  • Visibility: ¾ mile
  • Snow Today: 1.7 in
  •   

Regional Weather Roundup
for Boston / Norton, MA

        
000
ASUS41 KBOX 131505
RWRBOX

REGIONAL WEATHER ROUNDUP
NATIONAL WEATHER SERVICE BOSTON/NORTON MA
1100 AM EDT TUE APR 13 2021

NOTE:  "FAIR" INDICATES FEW OR NO CLOUDS BELOW 12,000 FEET WITH NO 
SIGNIFICANT WEATHER AND/OR OBSTRUCTIONS TO VISIBILITY.

MAZALL-131600-
EASTERN MASSACHUSETTS
  
CITY           SKY/WX    TMP DP  RH WIND       PRES   REMARKS
BOSTON         CLOUDY    54  38  54 NE18      30.04S                  
BEVERLY        NOT AVBL                                               
LAWRENCE       CLOUDY    53  39  59 NE12      30.05F                  
BEDFORD        CLOUDY    53  38  56 NE15      30.03S                  
BLUE HILL        N/A     49  37  63 NE14G25   30.01R                  
NORWOOD        CLOUDY    53  37  54 NE15G21   30.03S                  
MARSHFIELD     CLOUDY    50  41  71 N12G18    30.02S                  
PLYMOUTH       CLOUDY    50  37  61 N21G26    30.01R                  
TAUNTON        CLOUDY    52  37  56 NE8G18    30.02R                  
NEW BEDFORD    CLOUDY    51  38  60 N9G23     30.00R                  
$$

MAZALL-131600-
CAPE COD AND THE ISLANDS
  
CITY           SKY/WX    TMP DP  RH WIND       PRES   REMARKS
FALMOUTH       CLOUDY    48  39  71 N15G26    30.00R                  
HYANNIS        CLOUDY    50  40  68 N16G23    29.96S                  
CHATHAM        CLOUDY    49  39  68 N13G28    29.99R                  
PROVINCETOWN     N/A     48  41  76 MISG        N/A                   
NANTUCKET      CLOUDY    49  40  71 N24G33    29.96R                  
MARTHAS VNYRD  CLOUDY    51  39  63 N21G26    29.98R                  
$$
 
MAZALL-131600-
CENTRAL AND WESTERN MASSACHUSETTS
  
CITY           SKY/WX    TMP DP  RH WIND       PRES   REMARKS
WORCESTER      CLOUDY    50  36  58 NE9G20    30.03R                  
FITCHBURG      CLOUDY    53  38  56 NE12      30.04S                  
ORANGE         CLOUDY    57  39  51 VRB5      30.03S                  
SPRINGFIELD    PTSUNNY   57  38  49 NE14G20   30.02S                  
WESTFIELD      PTSUNNY   56  39  53 NE9       30.04R                  
NORTH ADAMS    MOSUNNY   57  40  52 NW6       30.04F                  
PITTSFIELD     PTSUNNY   52  38  58 W3        30.02F                  
$$
 
RIZALL-131600-
RHODE ISLAND
  
CITY           SKY/WX    TMP DP  RH WIND       PRES   REMARKS
PROVIDENCE     CLOUDY    54  38  54 NE18G26   30.03R                  
NEWPORT        CLOUDY    50  38  63 N18G28    30.00R                  
BLOCK ISLAND   CLOUDY    49  39  68 NE16G22   30.01R                  
SMITHFIELD     CLOUDY    51  40  65 N10G21    30.03R                  
WESTERLY       PTSUNNY   52  36  54 N13G23    30.01R                  
$$
 
CTZALL-131600-
CONNECTICUT
  
CITY           SKY/WX    TMP DP  RH WIND       PRES   REMARKS
BRADLEY INTL   PTSUNNY   56  38  50 NE15      30.03S                  
HARTFORD       CLOUDY    56  38  50 N13       30.04R                  
BRIDGEPORT     MOSUNNY   56  39  53 NE10      30.04F                  
DANBURY        CLOUDY    53  38  56 N9        30.06S                  
GROTON         PTSUNNY   56  38  50 N10       30.01R                  
NEW HAVEN      MOSUNNY   58  40  51 N13G20    30.03S                  
CHESTER        PTSUNNY   57  37  47 NE10G18   30.02R                  
MERIDEN        PTSUNNY   55  37  50 NE13G18   30.04R                  
WILLIMANTIC    CLOUDY    54  36  50 NE17      30.02R                  
OXFORD         PTSUNNY   52  42  69 N9        30.04S                  
$$

MEZ002-015-021-024-NHZ003-005-008-011-012-014-VTZ005-008-131600-
NORTHERN NEW ENGLAND
  
CITY           SKY/WX    TMP DP  RH WIND       PRES   REMARKS
PORTLAND ME    PTSUNNY   55  39  54 N14       30.04S                  
BANGOR ME      CLOUDY    53  38  56 N12G23    30.05S                  
CONCORD NH     CLOUDY    56  38  50 NE8       30.04S                  
MANCHESTER NH  CLOUDY    56  37  49 VRB7      30.03S                  
NASHUA NH      CLOUDY    55  39  54 N8        30.04F                  
PORTSMOUTH NH  PTSUNNY   56  36  47 N10G17    30.04F                  
JAFFREY NH     CLOUDY    55  37  50 VRB6G16   30.03S                  
KEENE NH       CLOUDY    57  39  51 N13       30.03S                  
BURLINGTON VT  MOSUNNY   58  39  49 VRB5      30.07S                  
MT. WASHINGTON FOG       34  34 100 E25         N/A  VSB 1/16WCI  21  
$$

NYZ052-076-131600-
EASTERN NEW YORK
  
CITY           SKY/WX    TMP DP  RH WIND       PRES   REMARKS
ALBANY         MOSUNNY   53  40  61 CALM      30.07F                  
NEW YORK CITY  PTSUNNY   54  37  52 N6        30.07S                  
$$
 
ANZALL-131600-
MARINE OBSERVATIONS
  
STATION/POSITION TIME  TEMP    WIND        PRES    VSBY  WAVE
                       AIR SEA DIR/SP/G                  HT/PER
                 (UTC) (F)     (DEG/KT/KT) (MB)    (MI)  (FT/S)
BOSTON BUOY      1440   46 44  360/ 16/ 19 1017.3R
BUZZARDS BAY     1400           30/ 22/ 25 1016.0R
NANTUCKET SOUND  1440      47                N/A
MASS BAY-STELLWA 1404   46     360/ 16/ 17 1015.6R  1 7/8  4/ 6
ISLE OF SHOALS   1400   47      10/ 14/ 17 1016.7R
S OF BLOCK IS    1426      44                N/A           4/ 7
$$

......................KEY.........................
  SKY/WX - SKY CONDITION/PRESENT WEATHER
  TMP    - TEMPERATURE IN FAHRENHEIT
  DWPT   - DEWPOINT IN FAHRENHEIT
  RH     - RELATIVE HUMIDITY IN PERCENT
  WIND   - DIRECTION AND SPEED IN MPH
  PRES   - MEAN SEA LEVEL PRESSURE IN INCHES OF HG
  WCI    - WIND CHILL INDEX
  VSB    - VISIBILITY IN MILES
  HX     - HEAT INDEX
  TC     - TEMPERATURE IN CELSIUS
  VRB    - VARIABLE WIND DIRECTION
  N/A    - NOT AVAILABLE
  
      

Other recent Regional Weather Roundups

Fri Apr 16, 11:04am

Fri Apr 16, 10:05am

Fri Apr 16, 9:04am

Fri Apr 16, 8:04am

Fri Apr 16, 7:04am

Fri Apr 16, 6:04am

Fri Apr 16, 5:04am

Fri Apr 16, 4:04am

Fri Apr 16, 3:04am

Fri Apr 16, 2:04am

Fri Apr 16, 1:04am

Fri Apr 16, 12:04am

Thu Apr 15, 11:05pm

Thu Apr 15, 10:04pm

Thu Apr 15, 9:04pm

Thu Apr 15, 8:04pm

Thu Apr 15, 7:05pm

Thu Apr 15, 6:04pm

Thu Apr 15, 5:05pm

Thu Apr 15, 4:04pm

Thu Apr 15, 3:05pm

Thu Apr 15, 2:04pm

Thu Apr 15, 1:05pm

Thu Apr 15, 12:04pm

Thu Apr 15, 11:04am

Thu Apr 15, 10:05am

Thu Apr 15, 9:04am

Thu Apr 15, 8:04am

Thu Apr 15, 7:04am

Thu Apr 15, 6:04am

Thu Apr 15, 5:04am

Thu Apr 15, 4:04am

Thu Apr 15, 3:04am

Thu Apr 15, 2:04am

Thu Apr 15, 1:04am

Thu Apr 15, 12:04am

Wed Apr 14, 11:04pm

Wed Apr 14, 10:04pm

Wed Apr 14, 9:04pm

Wed Apr 14, 8:04pm

Wed Apr 14, 7:04pm

Wed Apr 14, 6:04pm

Wed Apr 14, 5:05pm

Wed Apr 14, 4:04pm

Wed Apr 14, 3:05pm

Wed Apr 14, 2:04pm

Wed Apr 14, 1:05pm

Wed Apr 14, 12:04pm

Wed Apr 14, 11:04am

Wed Apr 14, 10:04am

Wed Apr 14, 9:04am

Wed Apr 14, 8:04am

Wed Apr 14, 7:04am

Wed Apr 14, 6:04am

Wed Apr 14, 5:04am

Wed Apr 14, 4:04am

Wed Apr 14, 3:04am

Wed Apr 14, 2:04am

Wed Apr 14, 1:04am

Wed Apr 14, 12:04am

Tue Apr 13, 11:04pm

Tue Apr 13, 10:05pm

Tue Apr 13, 9:05pm

Tue Apr 13, 8:05pm

Tue Apr 13, 7:04pm

Tue Apr 13, 6:04pm

Tue Apr 13, 5:05pm

Tue Apr 13, 4:04pm

Tue Apr 13, 3:04pm

Tue Apr 13, 2:05pm

Tue Apr 13, 1:04pm

Tue Apr 13, 12:05pm

Tue Apr 13, 10:04am

Tue Apr 13, 9:04am

Tue Apr 13, 8:04am

Tue Apr 13, 7:04am

Tue Apr 13, 6:04am

Tue Apr 13, 5:04am

Tue Apr 13, 4:04am

Tue Apr 13, 3:04am

Tue Apr 13, 2:04am

Tue Apr 13, 1:04am

Tue Apr 13, 12:05am

Mon Apr 12, 11:04pm

Mon Apr 12, 10:04pm

Mon Apr 12, 9:04pm

Mon Apr 12, 8:04pm

Mon Apr 12, 7:05pm

Mon Apr 12, 6:04pm

Mon Apr 12, 5:04pm

Mon Apr 12, 4:04pm

Mon Apr 12, 3:05pm

Mon Apr 12, 2:04pm

Mon Apr 12, 1:05pm

Mon Apr 12, 12:04pm

Mon Apr 12, 11:04am

Mon Apr 12, 10:04am

Mon Apr 12, 9:04am

Mon Apr 12, 8:04am

Mon Apr 12, 7:04am

Mon Apr 12, 6:04am

Mon Apr 12, 5:04am

Mon Apr 12, 4:04am

Mon Apr 12, 3:04am

Mon Apr 12, 2:04am

Mon Apr 12, 1:05am

Mon Apr 12, 12:04am

Sun Apr 11, 11:04pm

Sun Apr 11, 10:04pm

Sun Apr 11, 9:04pm

Sun Apr 11, 8:04pm

Sun Apr 11, 7:04pm

Sun Apr 11, 6:05pm

Sun Apr 11, 5:05pm

Sun Apr 11, 4:04pm

Sun Apr 11, 3:05pm

Sun Apr 11, 2:05pm

Sun Apr 11, 1:05pm

Sun Apr 11, 12:04pm

Sun Apr 11, 11:05am

Sun Apr 11, 10:05am

Sun Apr 11, 9:04am

Sun Apr 11, 8:04am

Sun Apr 11, 7:04am

Sun Apr 11, 6:04am

Sun Apr 11, 5:04am

Sun Apr 11, 4:04am

Sun Apr 11, 3:04am

Sun Apr 11, 2:04am

Sun Apr 11, 1:05am

Sun Apr 11, 12:04am

Sat Apr 10, 11:05pm

Sat Apr 10, 10:04pm

Sat Apr 10, 9:04pm

Sat Apr 10, 8:04pm

Sat Apr 10, 7:05pm

Sat Apr 10, 6:04pm

Sat Apr 10, 5:04pm

Sat Apr 10, 4:04pm

Sat Apr 10, 3:04pm

Sat Apr 10, 2:05pm

Sat Apr 10, 1:04pm

Sat Apr 10, 12:04pm

Sat Apr 10, 11:04am

Sat Apr 10, 10:04am

Sat Apr 10, 9:04am

Sat Apr 10, 8:04am

Sat Apr 10, 7:04am

Sat Apr 10, 6:04am

Sat Apr 10, 5:04am

Sat Apr 10, 4:04am

Sat Apr 10, 3:04am

Sat Apr 10, 2:04am

Sat Apr 10, 1:05am

Sat Apr 10, 12:04am

Fri Apr 9, 11:04pm

Fri Apr 9, 10:05pm

Fri Apr 9, 9:04pm

Fri Apr 9, 8:05pm

Fri Apr 9, 7:05pm

Fri Apr 9, 6:04pm

Fri Apr 9, 5:04pm

Fri Apr 9, 4:05pm

Fri Apr 9, 3:05pm

Fri Apr 9, 2:04pm

Fri Apr 9, 1:04pm

Fri Apr 9, 12:04pm

Meta data:

ID: 806bfd5f-1a99-4d6b-b4ec-4abd6bde11f2
Link: https://api.weather.gov/products/806bfd5f-1a99-4d6b-b4ec-4abd6bde11f2